Tracking 31080 objects as of 20-Jul-2025
HD Live streaming from Space Station
objects crossing your sky now

METEOR 2-17 DEB

Track METEOR 2-17 DEB now!
10-day predictions


NORAD ID: 28991
Int'l Code: 1988-005F
Perigee: 857.0 km
Apogee: 891.0 km
Inclination: 82.5 °
Period: 102.3 minutes
Semi major axis: 7244 km
RCS: 0.0099 m2 (small)
Launch date: January 30, 1988
Source: Commonwealth of Independent States (former USSR) (CIS)
Launch site: PLESETSK MISSILE AND SPACE COMPLEX (PKMTR)

Note: This is SATELLITE DEBRIS
Your satellite tracking list
Your tracking list is empty




NASA's NSSDC Master Catalog

Two Line Element Set (TLE):
1 28991U 88005F   25201.27561134  .00001646  00000-0  96016-3 0  9991
2 28991  82.5267 137.4949 0023479 134.5370  20.0683 14.07816452 19216
Source of the keplerian elements: AFSPC